Regional Weather Roundup
Issued by NWS

Home | Current Version | Previous Version | Text Only | Print | Product List | Glossary Off
Versions: 1 2 3 4 5 6 7 8 9 10 11 12 13 14 15 16 17 18 19 20 21 22 23 24 25 26 27 28 29 30 31 32 33 34 35 36 37 38 39 40 41 42 43 44 45 46 47 48 49 50

000
ASUS43 KFSD 241902
RWRSD

WEATHER ROUNDUP FOR SOUTH DAKOTA
NATIONAL WEATHER SERVICE SIOUX FALLS SD
200 PM CDT THU APR 24 2014

NOTE: "FAIR" INDICATES FEW OR NO CLOUDS BELOW 12,000 FEET WITH NO
SIGNIFICANT WEATHER AND/OR OBSTRUCTIONS TO VISIBILITY.


SDZ001>005-009-010-012>017-242000-
NORTHWEST AND NORTH CENTRAL SOUTH DAKOTA

CITY           SKY/WX    TMP DP  RH WIND       PRES   REMARKS
BUFFALO          N/A     58  24  27 W32G40    29.74F
FAITH            N/A     59  24  26 W25G37    29.78F
MOBRIDGE       MOSUNNY   63  22  20 NW20      29.70F
$$

SDZ012>016-024>037-041>051-057-063-072>074-242000-
SOUTHWEST AND SOUTH CENTRAL SOUTH DAKOTA

CITY           SKY/WX    TMP DP  RH WIND       PRES   REMARKS
RAPID CTY ARPT SUNNY     59  28  30 NE9G17    29.83F
PIERRE         SUNNY     64  28  25 NW22G36   29.76F
CUSTER         SUNNY     53  15  22 W16G28    29.85F
ELLSWORTH AFB  MOSUNNY   59  27  30 VRB3G18   29.82F
PHILIP         SUNNY     63  27  25 W16G26    29.81F
PINE RIDGE     SUNNY     62  18  18 W18G32    29.84F
WINNER         FAIR      68  21  16 NW25G37   29.78F
$$

SDZ004>011-016>023-039-040-242000-
NORTHEAST SOUTH DAKOTA

CITY           SKY/WX    TMP DP  RH WIND       PRES   REMARKS
ABERDEEN       MOSUNNY   63  28  26 NW18G24   29.69F
WATERTOWN      MOSUNNY   55  43  63 N7        29.72S
SISSETON         N/A     51  45  79 VRB3      29.71S
$$

SDZ017-020-022-023-036>040-048>070-242000-
SOUTHEAST SOUTH DAKOTA

CITY           SKY/WX    TMP DP  RH WIND       PRES   REMARKS
SIOUX FALLS    PTSUNNY   58  44  60 N13       29.74R
HURON          MOSUNNY   69  21  16 NW23G37   29.70F
CHAMBERLAIN      N/A     66  26  22 NW20G32   29.77F
MITCHELL       SUNNY     70  21  15 NW29G40   29.72F
YANKTON        SUNNY     63  39  42 N14G20    29.74F
$$

ABBREVIATIONS USED IN REMARKS
   TC - TEMPERATURE IN CELSIUS
  WCI - WIND CHILL INDEX
   HX - HEAT INDEX
  VSB - VISIBILITY




USA.gov is the U.S. government's official web portal to all federal, state and local government web resources and services.